When you browse on this site, cookies collect data to enhance your experience and personalize the content and advertising you see.
Visit our Privacy Policy to learn more. By continuing to use the site, you agree to this use of cookies and data.
  • In Romania
  • List of Countries
  • For 7 days
  • Water Temperature
  • Weather Map
  • Weather Widgets
  • user-avatar
    Login

    Hourly Weather Reykjavík

    Today, 11 November, Monday

    Time Temperature Precipitation Wind Pressure Humidity
    00:00 +1°C° 0.4 mm 16 mps 736 mmHg 87%
    01:00 +1°C° 0.4 mm 16 mps 736 mmHg 87%
    02:00 +1°C° 0.4 mm 16 mps 736 mmHg 87%
    03:00 +1°C° 0.1 mm 14 mps 737 mmHg 88%
    04:00 +2°C° 0.1 mm 11 mps 738 mmHg 88%
    05:00 +2°C° 0 mm 8 mps 739 mmHg 90%
    06:00 +3°C° 0.7 mm 6 mps 741 mmHg 91%
    07:00 +2°C° 0.7 mm 5 mps 742 mmHg 92%
    08:00 +3°C° 0.7 mm 4 mps 743 mmHg 93%
    09:00 +3°C° 0.9 mm 4 mps 744 mmHg 91%
    10:00 +3°C° 0.9 mm 3 mps 744 mmHg 89%
    11:00 +3°C° 0 mm 3 mps 745 mmHg 92%
    12:00 +2°C° 0.8 mm 3 mps 746 mmHg 93%
    13:00 +2°C° 0.8 mm 3 mps 746 mmHg 94%
    14:00 +2°C° 0.8 mm 3 mps 746 mmHg 94%
    15:00 +2°C° 0.5 mm 3 mps 746 mmHg 95%
    16:00 +1°C° 0.5 mm 4 mps 746 mmHg 96%
    17:00 0°C° 0.5 mm 4 mps 746 mmHg 97%
    18:00 0°C° 2.1 mm 4 mps 747 mmHg 97%
    19:00 +1°C° 2.1 mm 3 mps 747 mmHg 97%
    20:00 +1°C° 2.1 mm 3 mps 747 mmHg 97%
    21:00 +1°C° 0.1 mm 4 mps 747 mmHg 95%
    22:00 +1°C° 0.1 mm 4 mps 748 mmHg 92%
    23:00 +1°C° 0.1 mm 5 mps 748 mmHg 90%

    Tomorrow, 12 November, Tuesday

    Time Temperature Precipitation Wind Pressure Humidity
    00:00 +1°C° 0.1 mm 6 mps 749 mmHg 90%
    01:00 +1°C° 0.1 mm 6 mps 749 mmHg 90%
    02:00 -1°C° 0.1 mm 7 mps 750 mmHg 91%
    03:00 -1°C° 0.1 mm 6 mps 750 mmHg 92%
    04:00 +1°C° 0.1 mm 5 mps 750 mmHg 93%
    05:00 +1°C° 0.1 mm 5 mps 751 mmHg 94%
    06:00 +1°C° 0.2 mm 5 mps 751 mmHg 93%
    07:00 +1°C° 0.2 mm 4 mps 751 mmHg 93%
    08:00 +1°C° 0.2 mm 4 mps 752 mmHg 93%
    09:00 +1°C° 0.1 mm 5 mps 752 mmHg 92%
    10:00 0°C° 0.1 mm 5 mps 752 mmHg 91%
    11:00 0°C° 0.1 mm 5 mps 752 mmHg 91%
    12:00 0°C° 0.1 mm 5 mps 752 mmHg 91%
    13:00 0°C° 0.1 mm 5 mps 752 mmHg 91%
    14:00 +1°C° 0.1 mm 5 mps 752 mmHg 92%
    15:00 -1°C° 0.1 mm 6 mps 752 mmHg 93%
    16:00 -1°C° 0.1 mm 6 mps 752 mmHg 94%
    17:00 -1°C° 0.1 mm 6 mps 751 mmHg 95%
    18:00 -2°C° 0.1 mm 6 mps 751 mmHg 93%
    19:00 -2°C° 0.1 mm 5 mps 751 mmHg 91%
    20:00 -2°C° 0.1 mm 5 mps 751 mmHg 89%
    21:00 -4°C° 0.1 mm 5 mps 751 mmHg 87%
    22:00 -3°C° 0.1 mm 4 mps 750 mmHg 85%
    23:00 -3°C° 0.1 mm 4 mps 750 mmHg 82%

    Day after tomorrow, 13 November, Wednesday

    Time Temperature Precipitation Wind Pressure Humidity
    00:00 -3°C° 0 mm 4 mps 750 mmHg 81%
    01:00 -2°C° 0 mm 3 mps 750 mmHg 80%
    02:00 -4°C° 0 mm 3 mps 750 mmHg 79%
    03:00 -2°C° 0 mm 3 mps 751 mmHg 78%
    04:00 -2°C° 0 mm 3 mps 751 mmHg 76%
    05:00 -2°C° 0 mm 2 mps 751 mmHg 75%
    06:00 -2°C° 0 mm 2 mps 752 mmHg 74%
    07:00 -2°C° 0 mm 2 mps 753 mmHg 73%
    08:00 0°C° 0 mm 1 mps 753 mmHg 72%
    09:00 0°C° 0 mm 1 mps 754 mmHg 71%
    10:00 +1°C° 0 mm 1 mps 755 mmHg 71%
    11:00 +1°C° 0 mm 1 mps 755 mmHg 71%
    12:00 +1°C° 0 mm 1 mps 756 mmHg 71%
    13:00 -1°C° 0 mm 2 mps 757 mmHg 71%
    14:00 -1°C° 0 mm 2 mps 757 mmHg 71%
    15:00 -2°C° 0 mm 2 mps 758 mmHg 72%
    16:00 -2°C° 0 mm 2 mps 759 mmHg 73%
    17:00 -3°C° 0 mm 2 mps 759 mmHg 74%
    18:00 -3°C° 0 mm 2 mps 760 mmHg 73%
    19:00 -1°C° 0 mm 1 mps 761 mmHg 73%
    20:00 -1°C° 0 mm 1 mps 761 mmHg 72%
    21:00 -1°C° 0 mm 1 mps 762 mmHg 72%
    22:00 -1°C° 0 mm 1 mps 762 mmHg 71%
    23:00 -1°C° 0 mm 1 mps 763 mmHg 70%

    14 November, Thursday

    Time Temperature Precipitation Wind Pressure Humidity
    00:00 -1°C° 0 mm 1 mps 763 mmHg 70%
    01:00 -1°C° 0 mm 1 mps 763 mmHg 70%
    02:00 -3°C° 0 mm 2 mps 764 mmHg 69%
    03:00 -1°C° 0 mm 1 mps 764 mmHg 68%
    04:00 -1°C° 0 mm 1 mps 765 mmHg 67%
    05:00 -2°C° 0 mm 0 mps 765 mmHg 65%
    06:00 -1°C° 0 mm 1 mps 766 mmHg 64%
    07:00 -1°C° 0 mm 1 mps 766 mmHg 63%
    08:00 -3°C° 0 mm 2 mps 767 mmHg 63%
    09:00 -3°C° 0 mm 2 mps 767 mmHg 63%
    10:00 -3°C° 0 mm 2 mps 767 mmHg 64%
    11:00 -2°C° 0 mm 3 mps 767 mmHg 65%
    12:00 -2°C° 0 mm 3 mps 767 mmHg 64%
    13:00 -2°C° 0 mm 3 mps 767 mmHg 64%
    14:00 -2°C° 0 mm 3 mps 767 mmHg 63%
    15:00 -4°C° 0 mm 4 mps 767 mmHg 64%
    16:00 -5°C° 0 mm 5 mps 767 mmHg 64%
    17:00 -5°C° 0 mm 5 mps 766 mmHg 65%
    18:00 -5°C° 0 mm 6 mps 766 mmHg 66%
    19:00 -6°C° 0 mm 7 mps 766 mmHg 68%
    20:00 -6°C° 0 mm 8 mps 765 mmHg 70%
    21:00 -5°C° 0 mm 9 mps 765 mmHg 72%
    22:00 -4°C° 0 mm 10 mps 764 mmHg 75%
    23:00 -4°C° 0 mm 11 mps 763 mmHg 77%

    15 November, Friday

    Time Temperature Precipitation Wind Pressure Humidity
    00:00 -3°C° 0.1 mm 11 mps 762 mmHg 78%
    01:00 -2°C° 0.1 mm 12 mps 761 mmHg 80%
    02:00 -2°C° 0.1 mm 13 mps 759 mmHg 81%
    03:00 -1°C° 1.3 mm 14 mps 758 mmHg 86%
    04:00 -1°C° 1.3 mm 15 mps 757 mmHg 91%
    05:00 -2°C° 1.3 mm 16 mps 756 mmHg 95%
    06:00 0°C° 2.6 mm 15 mps 755 mmHg 95%
    07:00 0°C° 2.6 mm 15 mps 755 mmHg 95%
    08:00 +1°C° 2.6 mm 14 mps 754 mmHg 95%
    09:00 +1°C° 1.7 mm 11 mps 754 mmHg 96%
    10:00 0°C° 1.7 mm 8 mps 754 mmHg 96%
    11:00 +1°C° 1.7 mm 5 mps 754 mmHg 97%
    12:00 +1°C° 0.2 mm 5 mps 754 mmHg 93%
    13:00 +1°C° 0.2 mm 5 mps 754 mmHg 88%
    14:00 +1°C° 0.2 mm 5 mps 754 mmHg 84%
    15:00 +1°C° 0.1 mm 5 mps 754 mmHg 82%
    16:00 -1°C° 0.1 mm 6 mps 755 mmHg 81%
    17:00 -1°C° 0.1 mm 6 mps 755 mmHg 79%
    18:00 -1°C° 0.1 mm 6 mps 755 mmHg 78%
    19:00 -2°C° 0.1 mm 6 mps 755 mmHg 78%
    20:00 -2°C° 0.1 mm 6 mps 755 mmHg 77%
    21:00 -2°C° 0.1 mm 6 mps 755 mmHg 77%
    22:00 -2°C° 0.1 mm 6 mps 755 mmHg 78%
    23:00 -2°C° 0.1 mm 6 mps 755 mmHg 78%

    16 November, Saturday

    Time Temperature Precipitation Wind Pressure Humidity
    00:00 -2°C° 0.2 mm 6 mps 755 mmHg 78%
    01:00 -2°C° 0.2 mm 6 mps 755 mmHg 78%
    02:00 -2°C° 0.2 mm 6 mps 755 mmHg 78%
    03:00 -3°C° 0.2 mm 6 mps 755 mmHg 77%
    04:00 -3°C° 0.2 mm 6 mps 755 mmHg 77%
    05:00 -3°C° 0.2 mm 6 mps 755 mmHg 76%
    06:00 -3°C° 0.2 mm 6 mps 755 mmHg 76%
    07:00 -3°C° 0.2 mm 6 mps 755 mmHg 76%
    08:00 -2°C° 0.2 mm 5 mps 755 mmHg 76%
    09:00 -3°C° 0.2 mm 6 mps 755 mmHg 74%
    10:00 -3°C° 0.2 mm 6 mps 755 mmHg 72%
    11:00 -2°C° 0.2 mm 7 mps 755 mmHg 71%
    12:00 -2°C° 0.2 mm 7 mps 755 mmHg 71%
    13:00 -2°C° 0.2 mm 7 mps 756 mmHg 72%
    14:00 -2°C° 0.2 mm 7 mps 756 mmHg 73%
    15:00 -2°C° 0.1 mm 8 mps 756 mmHg 73%
    16:00 -2°C° 0.1 mm 8 mps 756 mmHg 73%
    17:00 -2°C° 0.1 mm 8 mps 757 mmHg 73%
    18:00 -2°C° 0.1 mm 8 mps 757 mmHg 72%
    19:00 -2°C° 0.1 mm 8 mps 758 mmHg 72%
    20:00 -2°C° 0.1 mm 8 mps 758 mmHg 72%
    21:00 -2°C° 0.1 mm 7 mps 758 mmHg 73%
    22:00 -2°C° 0.1 mm 7 mps 759 mmHg 74%
    23:00 -2°C° 0.1 mm 6 mps 759 mmHg 75%
    Show more